Other Public Products
Issued by NWS Grand Forks, ND

Home | Current Version | Previous Version | Graphics & Text | Print | Product List | Glossary On
Versions: 1 2 3 4 5 6 7 8 9 10 11 12 13 14 15 16 17 18 19 20 21 22 23 24 25 26 27 28 29 30 31 32 33 34 35 36 37 38 39 40 41 42 43 44 45 46 47 48 49 50
000
FPUS83 KFGF 300810
OPUFGF
PRAIRIE TO PINES WEATHER ROUNDUP
NATIONAL WEATHER SERVICE EASTERN NORTH DAKOTA/GRAND FORKS ND
300 AM CDT SUN APR 30 2017

 **SATELLITE DATA USED TO AUGMENT SKY COVER AT AUTOMATED STATIONS**
 *****  WEATHER ACROSS EASTERN NORTH DAKOTA  *****

CITY           SKY/WX    TMP DP  RH WIND       PRES   REMARKS
GRAND FORKS    FAIR      43  34  70 SE3       30.16F
GRAND FORKS AF FAIR      42  29  60 S3        30.16F
GRAND CITY NWS NOT AVBL
BUXTON         NOT AVBL
DEVILS LAKE    FAIR      44  26  49 S9        30.16F
FARGO          FAIR      39  30  70 NE3       30.17F
WAHPETON ARPT  FAIR      43  28  56 E3        30.17S
$$

 *****  WEATHER ACROSS CENTRAL AND WESTERN NORTH DAKOTA  *****

CITY           SKY/WX    TMP DP  RH WIND       PRES   REMARKS
JAMESTOWN      FAIR      37  28  70 CALM      30.15F
BISMARCK       FAIR      37  25  61 CALM      30.16F
MINOT          FAIR      48  21  34 S18       30.10F
MINOT AFB      FAIR      44  25  47 S12       30.08F
GARRISON         N/A     37  23  56 CALM      30.12F
WILLISTON      FAIR      35  31  85 CALM      30.06F
DICKINSON      FAIR      31  19  61 S12       30.09F WCI  22
HETTINGER      FAIR      36  20  52 CALM      30.13F
$$

 *****  OTHER OBSERVATIONS NORTHEAST NORTH DAKOTA  *****

CITY           SKY/WX    TMP DP  RH WIND       PRES   REMARKS
WALHALLA       NOT AVBL
LANGDON        FAIR      37  30  75 S9        30.16F
CAVALIER       FAIR      39  32  75 S7        30.16F
GRAFTON        FAIR      39  34  81 S5        30.19F
CANDO          NOT AVBL
FORT TOTTEN      N/A     41  26  54 S7        29.95S
ROLLA          FAIR      37  27  65 SW8       30.14F
RUGBY          NOT AVBL
 ***** THE ABOVE OBSERVATIONS ARE NON NWS ARE NOT QUALITY
        CONTROLLED AND MAY MIS-REPORT RAIN FOR SNOW...
$$

 *****  OTHER OBSERVATIONS SOUTHEAST NORTH DAKOTA *****

CITY           SKY/WX    TMP DP  RH WIND       PRES   REMARKS
COOPERSTOWN    FAIR      37  30  75 CALM      30.17F
VALLEY CITY    FAIR      36  25  64 CALM      30.18F
OAKES          NOT AVBL
GWINNER        SUNNY     41  32  70 MISG      30.15F
SHEYENNE NWR     N/A     40  25  55 N3        29.95S
BUFFALO        NOT AVBL
WYNDMERE         N/A     41  30  65 E3          N/A
 ***** THE ABOVE OBSERVATIONS ARE NON NWS ARE NOT QUALITY
       CONTROLLED AND MAY MIS-REPORT RAIN FOR SNOW...
$$

  *****  WEATHER ACROSS NORTHERN MINNESOTA  *****

CITY           SKY/WX    TMP DP  RH WIND       PRES   REMARKS
FLAG ISLAND    FAIR      41  27  56 SE7       30.20F
WARROAD        FAIR      39  27  60 SE7       30.21S
ROSEAU         FAIR      39  28  65 SE6       30.19F
HALLOCK        FAIR      37  28  70 SE8       30.17F
THF RVR FALLS  FAIR      41  25  53 E7        30.20F
HALSTAD          N/A     39  30  70 SE5         N/A
FOSSTON        FAIR      41  23  48 SE8       30.20F
BAUDETTE       FAIR      38  19  46 S7        30.22F
WASKISH        FAIR      39  27  60 CALM      30.23S
CROOKSTON      FAIR      39  30  70 SE6       30.18F
$$
  *****  WEATHER ACROSS CENTRAL AND WEST MINNESOTA  *****

CITY           SKY/WX    TMP DP  RH WIND       PRES   REMARKS
BEMIDJI        FAIR      38  22  53 CALM      30.21F
PARK RAPIDS    FAIR      42  19  39 NE5       30.19F
WADENA         FAIR      39  21  48 E6        30.17F
DETROIT LAKES  FAIR      43  27  52 E5        30.19F
MOORHEAD       FAIR      37  30  75 E6        30.18F
FERGUS FALLS   FAIR      46  21  36 E5        30.16S
ELBOW LAKE     FAIR      43  23  46 E8        30.15F
MORRIS MN      FAIR      45  25  45 E12       30.12F
STAPLES        FAIR      39  19  45 E5        30.17F
WHEATON        FAIR      41  27  56 NE5       30.16F
$$
  *****  WEATHER ELSEWHERE ACROSS MINNESOTA  *****

CITY           SKY/WX    TMP DP  RH WIND       PRES   REMARKS
DULUTH         FAIR      37  14  38 E12       30.21F
INTRNTL FALLS  FAIR      34  21  59 CALM      30.24F
ELY            FAIR      28  23  80 CALM      30.24F
CLOQUET        FAIR      36  12  38 NE7       30.20F
BRAINERD       FAIR      40  20  44 E5        30.19F
HIBBING        FAIR      32  18  56 E5        30.22F
ALEXANDRIA     FAIR      41  23  48 E12       30.15F
SAINT CLOUD    FAIR      41  23  48 NE9       30.15F
MINNEAPOLIS    CLOUDY    46  25  43 NE15      30.14S
$$

  *****  WEATHER ACROSS SOUTH DAKOTA  *****

CITY           SKY/WX    TMP DP  RH WIND       PRES   REMARKS
SIOUX FALLS    CLOUDY    45  29  53 NE12      30.04F
BROOKINGS      CLOUDY    43  24  47 NE8       30.07F
WATERTOWN      FAIR      39  23  52 NE7       30.10F
HURON          FAIR      40  30  67 N8        30.09F
SISSETON         N/A     40  31  70 N5        30.14S
ABERDEEN       FAIR      34  25  69 NE5       30.15F
MITCHELL       CLOUDY    45  28  51 NE9       30.06F
PIERRE         FAIR      35  23  61 N7        30.11F
MOBRIDGE       FAIR      34  23  64 CALM      30.13F
RAPID CITY     FAIR      30  20  66 NW9       30.12F WCI  22
$$

  *****  SOME WEATHER IN NEARBY STATES *****

CITY           SKY/WX    TMP DP  RH WIND       PRES   REMARKS
GLASGOW MT     FAIR      40  33  76 SE10      30.00F
GREAT FALLS MT FAIR      40  28  62 SW13      29.96F
CHEYENNE WY    FAIR      27  16  63 NW14G22   30.09F WCI  16
SCOTTSBLUFF NE FAIR      34  24  67 N9        30.09F
OMAHA NE       LGT RAIN  40  36  86 N16G25    29.91F FOG
DES MOINES IA  DRIZZLE   41  38  89 NE14      29.91R
DAVENPORT IA   CLOUDY    43  41  93 NE18      29.89F
CHICAGO IL     DRIZZLE   43  41  93 NE16      29.94F
EAU CLAIRE WI  CLOUDY    44  26  49 NE9       30.13F
LA CROSSE WI   CLOUDY    46  28  49 NE9       30.07F
$$

  *****  SOME NATIONAL WEATHER *****

CITY           SKY/WX    TMP DP  RH WIND       PRES   REMARKS
LA GUARDIA NY  MOCLDY    65  45  48 N6        30.14R
RALEIGH NC     MOCLDY    72  69  90 SW10      30.15F
ATLANTA GA     FAIR      72  68  87 SE8       30.07F
NEW ORLEANS LA CLOUDY    79  73  82 SE24G35   29.80S
OKLAHOMA CITY  LGT RAIN  47  46  97 SW15      29.66S
ALBUQUERQUE NM CLOUDY    36  35  96 SW5       30.08S
SALT LAKE CITY FAIR      42  29  59 SE7       30.19F
LOS ANGELES CA FAIR      63  45  51 SE9       30.05S
BOISE ID       MOCLDY    50  30  46 SE9       30.12F
SEATTLE WA     CLOUDY    50  49  96 S13       30.11S
$$

*** WEATHER ACROSS MANITOBA...SASKATCHEWAN AND ONTARIO ***
                ***ONTARIO***

CITY           SKY/WX    TMP DP  RH WIND       PRES   REMARKS
GERALDTON      PTCLDY    25  19  80 CALM      30.35F
THUNDER BAY    MOCLDY    27  25  93 SW5       30.30F WCI  21
SIOUX LOOKOUT  MOCLDY    34  18  51 S5        30.25F
TORONTO        CLOUDY    45  30  57 E13G21    30.21S
BIG TROUT LK   CLEAR     28  21  74 VRB2      30.26F
PICKLE LAKE    NOT AVBL
DRYDEN         MOCLDY    37  19  48 S10       30.23F
KENORA         PTCLDY    39  18  41 S7        30.21F
$$
                *** MANITOBA***

CITY           SKY/WX    TMP DP  RH WIND       PRES   REMARKS
BRANDON        PTCLDY    34  27  75 CALM      30.09F
DAUPHIN        CLEAR     34  25  69 SW5       30.09F
ISLAND LAKE    PTCLDY    34  25  69 E7        30.09F
PILOT MOUND      N/A     43  27  52 S13         N/A
THE PAS        CLEAR     34  28  80 SE3       30.05F
THOMPSON       PTCLDY    30  23  74 NE6       30.10F WCI  24
WINNIPEG       MOCLDY    43  25  49 S13       30.15F
LYNN LAKE      CLEAR     28  21  74 VRB2      30.06F
CHURCHILL      CLOUDY    23  18  80 S12       30.13F WCI  12
GILLAM         MOCLDY    28  14  54 SE5       30.16F WCI  23
$$
                ***SASKATCHEWAN***

CITY           SKY/WX    TMP DP  RH WIND       PRES   REMARKS
ESTEVAN        CLEAR     41  36  81 S7        30.04F
KINDERSLEY     PTCLDY    34  32  93 SE8       29.88F
LLOYDMINSTER   CLEAR     36  34  93 S7        29.88F
PRINCE ALBERT  PTCLDY    30  28  93 E7        30.00F WCI  23
REGINA         CLOUDY    43  39  87 SE5       30.00F
YORKTON        LGT RAIN  45  32  61 SW7       30.05S



USA.gov is the U.S. government's official web portal to all federal, state and local government web resources and services.